ECMWFFLT2_prec_cthk_087.txt.gz
RH
31 31 31 32 32 31 30 28 24 17 13 14 14 14 14 15 15 15 15 15 15 15 15 15 15 15 15 15 15 15 14 14 13 13 12 12 12 12 11 10 10 10 9 9 8 8 8 8 8 8 7 7
30 29 28 26 25 24 22 20 16 14 15 15 14 15 15 15 15 15 15 15 15 16 16 16 16 16 16 15 15 14 14 13 13 13 12 12 12 11 11 10 10 10 9 9 9 9 8 8 8 8 8 8
21 19 18 17 16 16 16 15 15 15 15 15 15 15 15 15 16 15 16 16 16 16 16 16 16 16 16 15 15 14 14 13 13 12 12 12 12 11 11 11 10 10 10 9 9 9 9 8 8 9 9 8
14 15 15 15 15 15 15 15 16 16 16 16 16 16 16 16 16 17 17 17 16 15 16 16 16 17 16 16 15 14 14 14 13 13 13 13 12 12 12 11 11 11 10 10 10 9 9 9 9 8 8 8
15 15 15 16 16 16 16 17 17 17 17 17 17 17 17 17 17 18 18 18 18 17 17 17 17 17 17 16 16 15 15 14 14 14 13 13 13 13 12 12 12 12 11 11 10 10 10 9 9 9 8 8
18 16 17 17 17 18 18 18 18 18 18 18 18 17 17 18 18 19 20 20 20 19 18 19 19 18 18 17 16 16 16 15 15 14 14 14 14 13 13 13 13 12 12 11 11 10 10 10 9 9 9 8
23 18 19 19 19 20 20 20 20 20 20 20 19 19 19 19 20 21 22 22 22 21 21 22 21 20 19 18 18 17 16 15 15 15 14 14 14 14 14 13 13 13 12 12 11 11 11 10 10 9 9 9
25 22 22 22 23 23 22 23 23 23 22 22 22 21 20 20 21 23 24 24 25 25 25 24 23 22 21 20 19 18 17 17 16 16 15 15 15 15 15 14 14 14 13 13 12 12 12 11 11 10 10 10
27 27 26 26 26 26 26 26 26 26 24 23 22 22 22 22 23 24 25 26 26 27 27 26 25 25 24 22 21 19 19 18 18 18 17 17 17 16 16 15 15 15 14 14 14 13 13 13 12 12 11 10
27 27 27 28 28 28 29 29 29 28 28 26 25 24 24 24 25 25 26 27 27 27 26 26 25 25 25 23 22 21 21 21 21 22 21 20 19 18 18 17 17 17 16 15 15 15 15 15 14 13 12 12
31 30 30 32 32 32 32 32 31 31 31 30 29 28 28 27 28 28 28 29 28 28 28 27 26 25 24 23 23 24 24 24 25 26 25 23 21 21 20 20 20 19 19 18 17 17 16 16 15 14 14 13
41 41 40 40 41 41 40 38 37 36 35 33 33 32 31 30 31 32 32 32 31 31 30 28 26 24 23 23 25 27 26 26 28 30 29 26 24 23 23 23 22 21 21 21 20 19 18 18 17 16 15 15
49 49 47 47 47 48 47 46 45 44 43 42 40 37 34 32 33 34 35 34 33 32 30 29 27 25 25 26 28 28 28 28 29 31 31 28 26 26 26 25 25 24 23 23 22 22 21 20 19 18 17 18
50 50 49 50 50 50 50 49 49 48 47 46 43 40 38 38 38 38 38 38 36 35 34 32 31 30 30 29 30 30 30 30 30 32 32 30 30 29 28 28 27 26 25 25 25 24 23 22 22 21 20 20
47 47 48 48 48 48 48 47 47 46 44 43 42 42 43 44 44 44 44 43 42 41 39 37 35 33 32 31 31 31 32 33 33 33 33 33 33 32 30 30 30 29 28 28 28 28 27 26 25 24 24 23
44 44 45 45 45 45 45 45 45 45 45 43 43 44 45 45 46 47 47 47 46 45 43 40 38 36 34 33 33 33 34 34 34 34 34 35 35 33 32 32 32 32 32 32 33 34 33 32 30 29 28 28
42 42 43 44 44 44 44 44 44 44 45 44 44 45 46 46 47 49 49 48 48 47 45 43 41 39 37 36 35 36 36 36 36 35 35 35 34 33 32 32 32 33 34 35 35 35 35 34 33 34 33 32
42 42 43 43 44 44 44 43 43 44 44 45 45 46 47 48 49 50 50 49 48 48 47 45 43 41 39 38 37 37 38 37 37 36 35 35 34 33 32 32 32 33 34 35 35 34 34 33 34 35 35 34
45 45 45 45 45 46 46 47 47 47 48 48 49 50 50 51 51 52 52 51 51 50 49 48 46 44 42 40 39 39 39 38 38 37 36 35 34 33 33 33 33 34 35 35 34 34 34 33 33 34 33 33
49 49 49 50 51 51 52 53 52 52 52 53 54 55 54 54 55 56 56 55 54 54 53 51 50 48 46 44 43 42 42 41 40 38 37 37 36 35 35 35 35 36 36 35 34 34 34 33 33 33 33 33
55 55 55 56 57 58 58 58 57 57 57 58 59 60 60 59 60 60 60 59 58 58 57 56 54 53 50 48 47 47 47 45 43 42 41 40 39 39 38 38 38 38 37 36 35 35 34 34 34 34 34 34
64 64 64 64 64 65 65 65 64 64 64 65 66 66 66 65 65 65 65 64 63 62 61 60 59 57 55 54 53 53 52 50 48 46 44 43 43 42 41 40 40 40 39 38 37 37 37 37 36 36 36 35
72 72 72 72 72 73 74 74 74 73 72 72 73 72 71 70 69 69 69 67 66 65 64 63 62 60 59 58 57 57 56 54 53 51 49 47 46 46 44 43 43 43 42 41 40 39 39 39 39 39 39 39
79 79 80 80 80 81 83 83 82 82 80 78 77 76 75 74 73 72 71 70 68 67 66 64 63 62 61 61 60 59 58 57 57 55 54 52 51 50 49 49 48 48 47 45 44 43 43 43 43 43 43 43
85 86 86 87 87 87 88 88 87 86 84 82 80 79 77 76 75 74 73 72 70 68 67 65 64 63 63 63 62 61 60 60 60 59 58 57 55 54 54 55 56 55 52 50 48 48 47 46 46 46 47 47
87 89 89 89 89 89 89 89 89 87 86 84 83 81 79 78 77 75 74 73 71 70 68 66 65 65 66 66 65 63 63 63 63 63 62 60 59 59 59 59 61 62 60 57 57 56 52 50 51 50 51 51
86 87 88 88 88 88 87 86 86 85 84 83 82 81 79 78 76 75 73 72 70 69 68 66 65 65 67 68 67 65 65 66 66 66 65 64 63 63 63 62 63 65 66 64 62 61 59 57 57 56 56 57
83 84 84 83 83 83 82 82 81 80 80 79 78 77 75 74 73 71 70 70 69 68 67 66 65 65 66 68 68 66 65 66 67 67 66 67 66 65 65 65 66 67 68 66 64 65 65 63 63 63 65 65
76 80 81 80 79 79 78 77 76 76 75 74 73 71 70 69 68 67 67 67 67 67 66 65 64 65 66 67 67 66 65 65 66 66 66 67 67 66 66 65 66 67 67 66 66 69 71 70 70 70 69 68
64 69 72 73 73 73 73 72 71 69 68 68 67 66 64 64 64 63 63 64 64 65 64 63 63 64 64 65 65 65 65 65 65 66 66 66 66 66 66 64 64 64 66 66 65 67 70 71 72 70 69 70
51 54 56 57 58 59 59 60 62 62 62 62 61 60 59 59 60 60 60 60 61 61 61 61 61 62 62 63 62 62 63 63 63 64 64 65 65 65 65 64 63 63 64 65 65 64 65 67 68 68 68 71

ECMWFFLT2_prec_cthk_090.txt.gz
RH
31 31 32 32 32 32 29 26 22 18 15 14 14 14 15 15 15 15 15 15 16 16 16 16 16 15 15 15 15 14 14 14 13 13 12 12 12 11 11 11 11 10 10 10 10 10 9 9 9 9 8 8
30 31 30 29 29 27 23 18 16 15 15 15 15 15 16 16 16 15 16 17 17 17 17 16 16 16 16 15 15 14 14 14 13 13 12 12 12 12 12 11 11 11 10 10 10 10 9 9 9 9 8 8
26 25 23 21 21 20 18 16 16 16 16 16 16 16 16 16 16 16 16 18 18 18 17 17 16 17 16 16 16 15 14 14 14 14 13 13 12 12 12 12 11 11 11 10 10 10 9 9 9 9 8 8
21 20 18 18 18 17 17 17 17 17 17 17 17 17 17 17 17 17 18 18 18 18 18 17 17 17 17 17 17 16 15 15 15 14 14 13 13 13 12 12 12 12 11 11 10 10 10 9 9 9 8 8
17 17 17 17 18 18 18 18 18 19 18 18 18 18 18 18 18 18 19 20 20 19 19 19 20 19 19 18 18 17 16 16 15 15 14 14 14 13 13 13 12 12 12 11 11 10 10 9 9 9 8 8
19 18 19 20 20 21 21 21 21 21 20 20 20 19 19 19 19 19 20 21 21 21 21 21 22 21 20 20 19 18 17 16 16 15 15 15 14 14 13 13 12 12 12 11 11 10 10 10 10 9 9 8
24 22 22 23 23 23 24 24 23 23 22 22 22 22 21 21 21 20 21 21 22 22 23 23 23 22 22 21 19 19 18 17 16 16 16 16 15 15 14 13 13 13 12 12 11 11 11 11 10 10 10 9
28 26 24 24 24 25 26 26 26 25 25 25 26 25 25 24 23 23 23 23 24 25 25 25 25 24 23 22 21 20 19 18 18 17 17 17 17 16 15 15 14 14 13 13 13 13 12 12 11 11 11 10
35 33 32 31 31 30 30 30 29 29 29 29 29 29 28 26 26 25 25 25 26 26 26 27 27 27 25 24 22 20 20 20 20 19 18 18 18 18 17 17 16 16 15 15 15 14 14 13 13 12 12 11
45 44 44 44 44 43 41 40 39 37 36 34 33 31 29 28 28 28 27 27 27 28 28 29 29 28 27 24 21 20 20 21 21 21 20 19 20 20 20 19 19 18 18 17 17 16 15 15 14 14 13 13
48 49 50 51 52 52 52 51 50 48 47 44 41 38 36 34 31 30 30 29 29 29 29 29 29 28 26 24 23 22 21 21 22 22 22 22 22 22 21 21 21 20 20 20 19 18 17 17 16 15 15 14
47 49 50 51 52 53 54 55 54 54 52 51 49 48 45 42 39 37 36 34 33 31 30 29 29 28 28 27 27 26 25 24 23 23 23 24 24 23 23 22 22 22 22 21 21 20 19 18 18 17 16 16
47 48 48 49 50 50 52 52 53 53 53 52 51 50 48 46 44 43 42 41 40 38 36 35 35 34 33 32 31 30 30 28 27 26 26 26 26 26 25 24 24 23 23 22 22 21 21 20 20 19 19 18
48 48 47 47 46 46 47 48 49 49 49 49 49 48 47 47 47 47 46 46 46 45 44 44 43 42 41 40 38 37 35 34 32 31 29 28 28 28 27 26 26 25 25 24 23 23 22 22 22 21 21 21
49 49 48 47 45 44 44 44 44 44 44 43 43 44 45 46 47 47 47 47 48 48 48 47 47 47 47 46 45 44 42 41 39 37 35 33 31 31 30 29 28 27 27 26 26 25 24 24 24 24 23 23
50 50 49 48 46 44 43 43 42 41 41 41 42 43 44 44 45 46 46 46 46 47 47 47 47 48 48 49 49 49 48 46 44 43 41 39 36 34 33 33 32 31 29 28 28 27 27 26 25 25 25 25
52 52 51 50 49 47 46 45 44 44 44 44 44 44 45 46 46 45 45 45 45 45 45 46 47 48 48 49 50 50 50 49 48 46 44 42 41 38 36 35 35 34 32 31 30 30 29 28 28 28 27 27
55 54 54 53 51 50 49 48 48 48 48 49 49 49 49 49 48 48 47 46 46 47 47 48 48 49 50 50 51 51 51 50 50 48 47 45 43 41 40 38 37 36 35 34 33 32 32 31 30 29 29 28
58 59 58 57 56 56 55 55 55 55 55 55 54 54 54 53 53 53 53 52 52 53 52 53 53 53 53 53 53 53 53 52 51 50 49 48 46 45 43 41 40 38 37 36 36 35 34 33 32 31 31 30
62 64 65 65 65 64 64 63 62 62 61 61 61 61 60 60 60 60 60 60 60 60 60 59 59 59 58 58 58 57 56 55 54 52 51 50 49 47 46 44 43 41 40 38 38 37 36 35 34 33 32 32
63 67 69 71 72 71 70 70 69 69 69 68 68 67 67 67 67 67 67 67 66 66 66 65 64 64 63 62 62 61 60 58 57 54 53 52 51 49 48 47 46 44 43 41 40 39 38 37 36 35 34 34
55 60 65 69 72 74 75 75 75 74 74 74 74 73 72 72 71 71 70 70 69 68 68 67 66 66 65 64 63 62 61 60 58 56 54 54 53 52 50 49 49 47 46 44 43 41 40 39 37 37 36 36
44 47 51 56 61 65 70 74 76 77 78 78 77 77 76 75 74 73 72 71 71 70 69 68 67 66 65 64 63 62 60 59 57 56 54 53 54 55 53 51 51 50 49 48 47 45 44 42 41 40 39 39
40 41 42 44 46 49 53 58 64 69 74 78 79 80 79 78 77 76 75 73 73 72 70 69 68 67 66 65 63 61 60 58 57 56 55 54 53 55 55 54 53 52 52 51 51 49 48 46 45 45 44 42
37 38 39 39 40 40 41 43 46 50 55 62 68 73 76 76 75 75 74 73 72 71 71 70 69 68 67 66 64 63 61 59 58 56 55 54 54 54 55 56 56 54 53 52 53 53 52 52 51 49 48 46
35 35 36 37 39 39 39 39 39 39 41 43 47 53 59 65 68 69 69 68 68 68 68 67 67 66 66 66 66 64 62 61 59 58 56 55 55 54 54 55 57 57 56 54 54 53 52 53 55 54 53 52
34 34 34 36 39 40 39 38 36 35 34 32 33 35 39 45 52 57 60 62 63 63 63 62 63 63 64 64 65 64 63 62 61 60 59 58 56 56 55 56 57 59 59 58 56 55 54 53 55 57 57 56
35 34 33 33 36 37 37 35 32 29 26 24 24 24 25 27 31 36 42 48 53 56 57 58 59 60 60 61 62 62 62 61 62 61 61 61 60 58 58 58 59 60 62 61 58 57 56 56 56 59 61 61
30 29 28 28 30 32 33 32 30 26 22 21 20 20 20 20 21 22 25 29 35 40 44 48 51 53 56 58 59 60 60 60 61 61 61 61 61 61 60 60 60 61 64 64 62 60 58 59 63 64 63 63
28 27 27 27 29 31 32 32 29 25 22 22 22 21 21 20 20 20 20 20 22 24 28 32 36 40 44 48 51 53 55 56 58 59 60 60 60 60 61 60 59 61 63 65 65 64 62 63 69 69 65 65
29 28 27 27 29 31 31 29 26 24 24 24 24 25 24 24 23 23 22 22 21 21 21 22 24 27 30 34 38 42 45 48 50 52 54 56 57 58 59 59 59 59 61 63 65 65 64 64 66 66 65 67

ECMWFFLT2_prec_cthk_093.txt.gz
RH
31 31 32 33 32 30 27 23 20 17 17 16 16 16 15 15 16 16 18 19 19 19 18 17 16 17 17 17 17 15 15 14 14 14 13 13 12 12 12 12 11 11 11 11 11 10 11 10 10 10 10 10
30 28 28 30 26 22 19 18 17 17 17 16 16 16 16 16 16 16 17 18 19 18 18 18 17 17 17 19 20 17 16 15 15 15 14 13 13 13 13 12 12 11 11 11 11 11 11 10 10 10 10 10
26 24 22 21 20 18 17 17 17 17 17 17 16 16 16 16 17 17 17 17 17 17 17 17 17 18 18 19 20 18 17 16 15 16 15 15 14 14 13 13 13 12 12 12 12 11 11 11 10 10 10 10
21 22 20 19 20 20 20 20 19 19 19 18 18 18 18 18 18 19 18 18 17 17 17 17 17 18 18 18 19 18 17 17 16 16 15 15 15 14 14 13 13 13 13 12 12 12 11 11 10 10 10 10
21 22 23 24 25 25 24 24 24 23 22 21 21 21 21 21 21 21 20 20 20 19 19 19 19 19 19 19 19 19 18 18 17 17 16 16 16 15 15 14 14 13 13 13 12 12 12 11 11 11 10 10
25 25 26 27 27 28 27 27 27 26 26 25 25 24 24 24 23 23 23 23 22 22 22 21 21 20 20 20 20 20 19 19 18 17 17 16 16 16 16 15 15 14 14 13 13 13 12 12 11 11 11 10
30 28 28 28 28 30 29 29 30 29 30 29 29 28 27 27 26 26 26 26 26 26 25 25 24 23 23 22 21 21 20 19 18 18 18 17 17 17 17 17 16 15 15 14 14 14 13 13 12 12 12 11
36 33 31 31 29 30 30 30 30 31 32 33 33 32 31 30 29 29 28 28 28 28 28 28 28 27 26 25 23 21 20 20 19 18 18 18 18 18 18 18 18 17 16 16 15 15 15 15 14 13 13 12
46 45 43 41 38 36 35 34 33 34 34 34 34 34 33 32 31 31 31 31 30 30 30 30 29 28 27 25 23 21 20 20 20 19 19 19 19 19 19 19 19 18 18 17 17 17 17 16 16 15 14 14
50 50 49 49 48 47 46 45 44 44 43 42 42 40 38 36 35 34 33 32 32 31 31 30 29 27 26 24 23 22 22 22 22 22 21 21 21 21 21 21 21 20 19 19 19 19 18 18 17 17 16 15
46 46 46 47 48 49 49 50 50 50 50 50 49 48 47 46 44 42 40 39 37 36 34 32 30 28 27 26 25 25 25 25 24 24 24 23 22 22 22 23 23 23 22 21 21 20 20 19 19 18 18 17
44 44 45 45 46 46 47 48 48 49 50 50 50 49 48 48 47 46 46 45 45 44 43 42 40 38 36 34 32 30 28 27 27 27 26 26 25 24 23 23 23 24 24 23 22 21 21 21 21 20 19 19
43 43 44 44 44 44 45 46 46 47 48 48 48 48 46 45 44 44 45 46 47 48 49 49 48 47 46 44 42 40 37 34 32 31 30 29 28 27 26 25 24 24 24 24 24 23 22 22 21 21 21 20
45 45 44 44 44 44 44 45 46 46 47 46 46 45 44 43 43 43 44 45 46 47 48 49 49 49 49 49 48 47 46 44 42 40 38 36 34 32 30 29 27 26 25 25 24 24 24 23 23 22 22 21
44 44 44 45 45 45 45 46 46 46 46 46 46 45 44 44 43 44 44 45 46 46 47 47 48 48 48 49 49 49 49 49 48 48 47 45 44 42 39 37 34 32 30 28 27 26 25 26 25 24 24 23
38 39 40 40 41 43 44 45 46 46 47 47 48 48 48 48 48 48 48 47 47 47 47 48 48 48 48 48 49 50 50 51 51 51 51 51 50 49 48 47 44 42 39 36 34 31 29 29 28 28 27 26
31 31 32 32 33 34 36 38 41 43 46 48 50 52 53 53 54 54 54 53 52 51 51 51 51 51 51 51 51 51 51 52 52 52 53 53 53 53 53 53 52 50 48 45 43 41 38 35 34 32 31 30
23 23 24 24 24 26 27 30 33 36 39 43 46 50 53 55 57 57 58 58 57 57 57 56 56 55 55 55 55 55 55 54 54 54 54 54 55 55 55 56 56 55 54 53 50 48 47 44 41 39 37 36
18 19 19 20 21 21 23 24 26 28 30 33 35 39 43 48 52 56 58 59 60 60 60 59 59 59 59 59 59 59 58 58 57 56 55 55 54 55 55 56 56 57 56 56 54 53 51 50 48 46 43 41
19 20 21 21 22 22 22 23 24 24 25 27 28 29 32 35 40 44 49 53 56 58 60 60 59 59 59 59 59 60 59 59 59 58 58 57 55 55 55 55 55 56 56 56 55 54 53 52 51 49 47 46
20 20 20 21 20 21 21 22 23 24 25 25 26 27 27 28 30 32 35 38 42 47 52 56 58 59 59 58 58 58 59 58 58 58 57 58 57 56 54 55 55 55 55 55 55 55 54 53 52 51 50 48
17 16 16 16 15 16 17 19 20 22 23 24 25 25 26 27 27 27 28 28 30 32 36 42 48 53 57 58 59 59 59 59 59 58 57 57 57 56 55 54 54 54 54 54 54 55 55 55 54 53 52 51
14 14 13 14 14 15 16 17 18 20 22 23 24 25 26 27 27 27 27 27 27 27 28 30 32 37 42 48 53 57 60 60 60 59 58 58 57 57 56 54 52 52 52 52 53 53 54 55 54 54 54 54
16 16 17 17 18 18 19 19 19 20 22 23 23 24 24 25 24 24 24 24 25 25 25 25 25 26 28 31 36 42 49 55 58 59 58 58 58 58 59 57 54 52 51 51 51 52 52 53 53 54 54 54
18 18 19 20 20 21 21 20 19 19 20 20 20 20 19 18 17 17 18 18 19 19 19 20 20 20 21 22 23 25 29 36 44 50 54 56 56 56 57 59 58 56 53 51 51 52 52 53 53 54 55 55
19 19 19 20 21 21 21 20 18 17 18 19 19 18 17 15 14 14 14 14 14 15 15 15 16 16 16 17 17 18 18 20 24 30 38 45 51 55 56 57 58 58 56 54 53 51 51 54 55 56 57 57
21 21 21 22 23 23 23 22 19 18 18 18 18 17 16 15 15 14 14 14 14 14 15 15 15 15 16 16 16 16 17 17 17 17 20 25 33 42 48 53 56 58 58 57 55 52 52 52 53 56 58 59
23 24 25 25 26 26 26 24 21 19 18 17 17 16 16 16 16 15 15 15 15 15 16 16 16 16 17 17 17 17 17 17 17 17 17 17 19 23 30 39 46 52 56 57 57 58 56 53 52 55 57 58
27 28 28 28 29 29 28 26 24 21 19 17 16 16 16 16 16 16 16 17 17 17 17 17 18 18 18 19 19 19 19 19 19 19 19 19 19 18 19 23 29 38 46 50 54 56 59 60 61 60 57 56
30 30 31 31 31 31 30 28 26 23 20 17 16 16 16 17 17 17 17 18 18 18 18 19 19 20 20 20 21 21 20 20 21 21 21 21 22 21 21 20 21 25 32 40 45 49 54 62 68 66 62 60
33 33 33 33 33 33 31 30 28 24 21 18 17 17 17 17 17 17 18 18 19 19 19 20 20 21 21 21 22 22 22 23 23 23 23 23 23 23 23 23 22 22 24 30 36 41 45 51 57 59 59 61

ECMWFFLT2_prec_cthk_099.txt.gz
RH
34 32 30 23 18 18 18 19 20 21 20 19 18 18 17 17 17 17 17 17 16 16 16 15 16 16 16 16 15 16 16 16 15 16 17 18 17 14 13 14 13 12 12 12 11 11 11 11 10 10 10 10
34 32 28 20 18 20 22 24 24 23 23 21 20 19 18 18 18 18 18 17 17 17 16 16 16 16 16 15 15 16 15 15 15 14 14 14 14 14 14 13 13 13 13 13 12 12 12 11 11 11 11 11
35 32 25 21 23 25 26 26 25 25 25 24 23 21 20 19 19 19 19 18 18 18 17 17 17 17 17 16 16 16 15 15 15 15 14 14 14 14 14 14 13 13 13 13 13 13 13 13 12 12 11 11
35 30 25 26 29 29 29 29 28 28 28 28 28 26 25 23 22 21 21 20 19 19 19 19 18 18 18 18 17 17 17 16 16 16 15 15 15 14 14 14 14 14 14 13 14 14 13 14 13 13 13 12
33 30 30 32 33 32 32 32 32 32 32 32 31 30 28 27 26 25 24 23 23 23 22 22 21 21 20 20 19 18 18 18 17 17 17 16 16 16 15 15 15 14 14 14 14 14 14 14 14 14 13 13
38 38 39 39 39 39 39 38 38 37 37 36 35 33 32 30 28 27 27 27 26 26 25 25 24 24 23 22 22 21 21 20 20 19 19 18 18 17 17 17 16 16 15 15 15 14 14 14 15 15 14 14
43 43 43 42 42 42 42 41 41 40 40 39 39 37 36 34 33 33 32 31 31 30 30 29 28 27 26 25 24 24 23 23 23 23 22 22 21 20 19 19 18 18 17 17 16 16 15 15 15 15 15 15
42 41 40 41 40 40 39 39 39 39 39 38 37 36 36 35 35 35 35 35 35 35 34 34 33 32 31 30 29 29 28 28 27 27 26 26 25 24 23 22 21 20 20 19 18 18 17 17 17 16 16 15
36 35 34 34 33 33 33 33 33 32 32 31 31 31 31 31 31 31 32 32 32 32 32 32 33 33 33 33 34 34 34 34 33 33 32 31 30 29 28 26 25 23 23 22 21 21 20 19 19 18 18 17
27 26 26 26 25 25 24 25 24 23 23 23 23 23 24 24 24 25 25 25 25 25 26 26 27 28 30 31 32 33 35 36 36 37 37 37 37 36 35 33 32 29 28 26 24 24 23 22 21 21 20 20
21 21 21 20 20 19 19 19 18 18 18 18 18 18 18 18 18 18 18 18 18 19 20 20 21 22 23 25 26 28 29 31 32 34 35 37 38 39 40 40 39 38 36 34 32 29 27 25 24 24 23 23
19 19 19 19 18 18 17 17 17 16 16 15 15 14 14 14 14 14 14 14 14 15 15 16 16 17 18 18 20 21 22 23 25 27 28 30 32 34 37 38 40 41 42 41 40 39 36 33 30 28 26 25
18 18 17 17 17 16 16 16 15 14 14 13 13 13 13 13 13 13 13 14 14 14 14 15 15 15 15 16 16 16 17 18 19 20 21 23 24 26 28 31 33 36 39 41 42 43 43 42 40 37 34 31
17 16 16 16 15 15 15 14 14 13 13 13 13 13 13 13 14 14 15 15 15 15 15 15 15 15 15 15 15 16 16 16 17 17 17 18 19 20 21 22 24 26 29 33 36 39 42 44 45 45 44 42
16 15 15 15 15 14 14 13 13 13 13 13 14 15 15 16 16 15 15 15 14 14 14 14 14 14 14 14 14 14 14 14 14 14 14 14 15 15 16 16 17 18 20 22 25 29 33 37 41 44 46 46
15 15 15 15 14 14 14 14 14 14 15 16 16 16 16 15 14 14 12 12 11 11 11 10 10 10 10 10 10 10 10 10 10 10 10 10 10 11 11 11 12 13 14 15 16 18 21 25 29 35 40 43
16 15 15 15 15 15 15 16 17 17 17 17 16 14 13 13 12 11 11 10 9 9 8 8 8 8 8 8 8 8 8 7 7 7 7 7 7 7 7 7 8 8 9 10 11 12 13 15 18 21 27 33
16 16 15 16 16 16 18 18 18 17 16 14 13 13 12 12 11 11 11 10 9 9 8 8 8 8 8 8 7 7 7 7 7 7 7 6 6 6 6 6 6 6 6 6 7 8 9 10 12 14 16 20
16 16 16 17 18 19 19 17 16 15 14 14 14 13 13 12 12 11 10 10 9 9 9 8 8 8 8 8 8 8 7 7 7 7 7 7 7 6 6 6 6 6 5 6 6 6 6 7 8 10 11 14
17 17 18 19 19 18 17 15 15 15 15 15 15 14 14 13 12 12 11 10 10 9 9 9 9 9 8 8 8 8 8 7 7 7 7 7 6 7 6 6 6 6 6 6 6 6 6 6 6 7 8 10
18 19 20 20 18 16 16 16 16 17 17 16 15 15 14 13 13 12 12 11 11 11 10 10 10 9 9 9 8 8 8 8 8 7 7 7 7 7 7 6 6 6 6 6 6 6 6 6 6 6 6 7
20 21 20 19 17 17 18 18 19 18 17 16 15 15 14 14 14 14 13 13 13 12 11 11 10 10 10 9 9 9 9 8 8 8 7 8 7 7 7 7 7 6 6 6 6 6 6 6 6 6 6 6
22 21 20 19 19 20 20 20 20 19 17 17 16 16 16 15 15 15 15 15 14 13 13 12 12 11 11 10 10 10 10 9 9 9 8 8 8 7 7 7 7 7 7 6 6 6 6 6 6 6 6 6
23 21 20 20 21 22 23 22 20 19 18 18 18 18 18 17 17 17 16 16 16 15 14 13 13 13 12 12 12 11 11 11 10 10 9 9 8 8 8 8 8 7 7 7 7 6 6 6 6 6 6 6
23 22 22 22 23 24 23 22 21 20 20 20 20 20 20 20 19 19 18 18 17 16 15 15 14 14 14 14 13 13 12 12 11 11 10 10 10 9 9 9 8 8 8 8 7 7 7 7 7 7 7 7
25 24 24 24 25 25 24 22 22 22 22 22 23 23 23 23 22 21 21 20 19 18 17 16 16 16 16 15 15 15 14 14 13 12 12 11 11 10 10 10 9 9 9 9 8 8 8 8 8 8 8 8
27 26 26 27 27 25 25 25 24 25 25 26 26 26 27 27 26 25 24 23 21 20 19 18 18 18 18 17 17 17 16 16 15 14 14 13 12 12 11 11 11 11 10 10 9 9 9 9 8 9 9 9
28 27 29 29 28 27 27 27 28 28 28 30 30 30 30 30 30 30 28 27 26 23 21 20 20 20 20 19 19 18 18 17 17 16 16 15 14 14 13 13 13 13 12 11 11 11 11 11 10 11 11 10
29 29 31 30 28 28 29 30 31 31 32 33 34 34 34 33 33 33 32 32 30 27 25 23 23 23 22 22 21 20 20 19 18 18 17 17 16 16 15 15 14 15 14 14 14 13 13 14 15 15 13 12
30 31 32 31 29 30 31 32 32 32 34 35 36 37 37 37 36 36 36 36 35 33 29 26 25 26 25 24 23 22 21 21 20 20 19 19 18 18 18 17 17 17 16 17 16 16 15 17 19 17 15 15
33 33 34 33 31 31 33 34 33 34 36 37 39 41 41 41 40 40 40 40 39 38 34 31 29 29 29 28 26 24 23 23 22 22 21 20 20 20 19 19 19 19 18 19 19 19 18 18 19 18 17 18

ECMWFFLT2_prec_cthk_102.txt.gz
RH
33 32 32 26 19 20 23 23 23 23 23 23 23 22 20 19 18 18 18 17 18 17 17 17 17 16 16 16 16 16 15 15 15 14 14 14 14 14 14 14 14 13 13 12 12 12 12 12 11 11 11 11
34 34 32 24 22 25 26 25 25 25 26 25 25 25 24 23 21 21 20 20 19 19 19 19 18 18 17 17 17 16 16 16 15 15 15 14 14 14 14 14 14 14 14 13 13 12 12 12 12 12 12 11
38 37 31 26 28 30 29 29 29 29 28 28 27 27 26 25 24 24 23 23 23 23 23 22 22 21 21 20 19 19 18 18 17 16 16 16 16 15 15 15 15 14 14 14 14 13 14 13 13 12 12 12
41 37 31 30 32 32 32 32 32 31 30 29 28 27 27 26 26 26 25 25 25 25 25 25 25 24 24 23 23 22 22 21 21 20 20 19 18 17 17 17 16 16 16 15 15 14 14 14 14 13 13 13
41 36 34 35 35 35 36 36 35 35 33 32 31 30 30 29 29 28 28 27 27 26 26 25 25 25 24 24 24 23 23 23 23 23 23 23 22 22 21 20 19 19 18 17 17 16 16 15 15 14 14 14
41 40 39 39 38 39 39 38 38 37 36 34 33 33 33 32 32 32 31 31 30 30 29 29 28 28 27 26 26 25 25 25 25 25 25 25 25 25 25 24 24 23 22 21 20 19 18 17 17 16 16 15
41 40 39 38 38 38 37 36 35 34 32 31 31 31 30 30 29 28 28 28 28 28 28 28 28 28 29 29 29 29 28 28 28 28 28 28 27 27 26 26 26 26 26 25 24 23 22 21 20 19 18 17
37 35 33 32 32 30 29 27 26 25 24 23 23 23 22 22 21 20 20 20 20 21 21 21 22 23 24 24 25 26 26 27 28 28 29 29 29 29 29 29 29 28 28 28 27 27 26 25 24 23 22 20
29 26 25 24 23 21 20 19 19 18 18 17 17 16 16 15 15 15 14 14 15 15 15 15 16 17 17 18 19 19 20 21 22 23 24 25 26 27 28 28 29 30 30 30 30 30 29 29 28 27 26 24
22 20 19 19 18 17 17 16 16 15 15 15 14 14 13 12 12 12 12 12 13 13 13 13 13 14 13 14 14 14 14 14 15 16 17 18 19 20 21 23 24 25 26 27 29 30 30 31 31 31 30 28
19 18 18 17 17 16 16 15 15 15 14 13 13 12 12 12 12 12 13 13 13 13 12 12 11 11 10 10 10 9 9 10 10 10 10 11 12 13 14 15 16 17 19 20 21 23 25 26 28 30 31 32
18 17 17 16 16 15 15 15 14 14 13 12 12 12 12 13 13 13 14 13 12 11 10 10 9 9 8 8 8 7 7 7 7 7 7 7 7 7 8 8 9 10 11 12 14 15 16 18 20 22 25 27
17 17 16 16 15 15 14 14 14 13 13 12 12 13 13 14 14 13 12 11 10 10 9 9 9 9 8 8 7 7 6 6 5 5 5 5 5 5 5 5 6 6 6 7 7 8 9 11 12 14 16 18
17 16 16 15 15 15 15 14 14 13 13 13 14 14 15 14 13 12 11 11 10 10 10 10 10 9 8 7 6 6 6 6 6 6 5 5 5 5 5 5 5 5 5 5 5 5 6 6 7 8 9 11
17 16 15 15 15 15 15 15 14 14 14 15 15 15 14 13 12 11 12 12 12 12 11 10 9 8 7 7 7 7 6 6 6 6 6 6 6 6 6 5 5 5 5 5 5 5 5 5 5 6 6 6
16 16 16 16 16 16 15 15 15 15 16 16 16 15 14 13 13 13 13 13 13 12 11 9 9 8 8 8 8 7 7 7 7 7 6 6 6 6 6 6 6 6 5 5 5 5 5 5 5 5 5 5
16 16 16 16 16 16 16 16 16 17 17 16 15 14 14 14 14 15 14 14 12 11 10 10 9 9 9 9 9 8 8 8 8 8 7 7 7 7 7 7 6 6 6 6 6 6 5 5 5 5 5 5
17 17 17 17 17 17 17 17 18 18 17 16 15 15 15 16 16 15 14 13 11 11 11 11 10 10 10 10 10 10 10 10 9 9 9 8 8 8 8 8 7 7 7 7 7 6 6 6 6 6 6 5
18 18 18 18 17 18 18 19 19 18 17 16 16 17 17 17 16 15 14 13 12 12 12 12 12 12 12 11 11 11 11 11 11 10 10 10 10 9 9 9 9 8 8 8 7 7 7 7 6 6 6 6
19 19 19 18 18 19 19 20 19 18 17 17 18 18 18 17 16 14 14 14 13 13 13 13 13 13 13 13 12 12 12 12 12 12 12 11 11 11 10 10 10 9 9 8 8 8 8 7 7 7 7 6
20 19 19 19 19 19 20 20 19 19 18 18 19 19 18 17 15 15 15 15 15 14 14 14 14 14 13 13 13 13 13 13 13 13 13 12 12 12 12 11 11 10 10 10 9 9 9 8 8 8 8 7
20 19 19 19 20 21 21 20 20 19 20 20 20 19 18 17 17 17 17 17 16 16 16 15 15 14 14 14 14 14 14 14 14 14 14 13 13 13 13 12 12 12 11 11 11 10 10 10 9 9 8 8
20 20 20 21 21 22 22 22 21 21 22 22 21 20 19 19 19 20 19 19 19 18 18 17 16 16 15 15 14 14 14 14 15 15 15 14 14 14 14 13 13 13 12 12 12 12 11 11 10 10 10 9
20 21 21 22 23 24 24 24 24 24 25 24 22 22 22 22 23 23 23 23 23 22 21 20 19 18 17 16 16 16 16 16 16 15 16 15 15 15 15 14 14 14 13 13 13 12 12 12 11 11 10 10
21 22 23 24 26 26 26 26 26 26 26 25 24 24 25 26 26 26 27 27 27 27 26 25 23 21 20 19 18 17 17 17 17 17 17 16 16 16 16 16 15 15 14 14 14 13 13 13 13 13 13 11
21 23 24 26 27 28 28 27 28 28 27 26 26 27 27 28 29 29 30 30 30 31 31 30 28 26 24 22 21 20 19 19 19 18 18 18 18 17 17 17 16 16 15 15 15 14 14 14 15 16 16 14
22 24 25 27 29 29 29 28 29 29 28 27 28 29 30 31 32 32 32 33 34 34 34 34 32 31 28 27 25 23 22 21 21 21 20 20 19 19 18 18 17 17 17 16 15 15 16 16 16 16 16 17
23 24 26 27 28 29 28 28 30 30 29 28 30 31 33 34 35 35 36 36 37 37 37 37 37 35 33 31 29 27 25 24 23 23 22 22 21 20 20 19 18 18 18 17 17 17 17 17 17 17 17 17
23 24 26 27 28 28 28 28 29 30 29 29 31 33 35 36 38 39 39 40 40 41 41 41 41 40 38 36 34 31 29 27 26 25 24 23 22 22 21 21 20 19 18 18 17 17 17 18 19 19 19 17
23 25 26 27 27 27 28 28 29 30 30 30 32 35 37 39 40 42 42 43 43 44 45 45 45 44 43 40 39 36 34 31 29 28 27 26 24 24 23 22 21 20 19 19 18 18 18 18 19 19 20 19
24 26 27 27 27 27 28 29 30 32 33 32 34 36 38 40 42 44 46 46 47 48 49 50 50 49 47 45 43 42 39 36 33 32 30 28 27 25 24 23 23 22 21 20 20 20 19 19 19 19 19 20

ECMWFFLT2_prec_cthk_108.txt.gz
RH
43 42 41 40 34 31 31 31 30 29 29 29 29 28 27 26 25 24 24 23 23 23 22 22 22 21 21 21 21 21 21 21 20 20 20 20 20 20 20 20 20 20 20 20 20 20 19 19 18 18 17 17
40 40 38 36 32 30 31 30 30 29 27 27 26 26 25 24 23 23 22 21 20 19 19 18 18 18 17 17 17 17 17 17 17 18 18 18 18 19 19 19 19 19 20 20 20 21 20 20 20 19 18 18
40 39 37 35 33 31 31 30 29 27 25 24 23 23 22 21 20 19 18 17 16 16 15 15 14 14 14 13 14 14 14 14 14 14 14 15 15 16 16 16 17 17 18 19 19 20 20 20 21 21 21 20
42 39 37 36 33 31 30 28 26 24 23 22 21 20 19 18 18 17 16 15 15 15 14 14 14 14 14 14 14 14 14 14 14 14 14 14 14 14 14 15 15 15 16 16 16 17 18 18 19 20 20 20
41 38 38 36 32 30 29 27 25 24 22 22 21 20 19 18 17 17 17 17 16 16 16 16 16 16 16 16 16 16 16 16 16 16 16 15 15 15 15 15 15 15 15 15 15 15 15 16 16 17 18 19
38 38 38 34 32 31 30 28 25 23 22 21 21 20 19 19 18 18 18 18 18 17 18 18 18 17 17 17 16 16 16 15 15 15 15 15 15 15 15 15 15 15 15 15 14 14 14 14 14 15 15 16
38 40 38 34 32 31 29 27 24 22 21 21 20 20 19 18 18 17 17 17 17 16 16 16 15 14 14 13 13 12 12 12 12 12 12 12 11 11 12 12 12 12 12 12 12 12 13 13 13 13 13 14
41 42 37 32 30 28 26 23 21 19 18 18 17 16 15 15 14 13 13 13 12 12 11 10 9 9 9 8 8 8 8 8 7 7 7 7 7 7 7 7 7 7 8 8 8 9 9 9 10 10 11 11
41 38 31 27 25 22 21 18 16 15 14 14 13 13 12 11 10 10 10 10 9 8 8 7 7 7 7 6 6 6 5 5 5 4 4 4 4 4 4 4 4 5 5 5 5 5 5 6 6 6 7 8
34 29 24 22 20 18 17 15 13 12 12 12 11 11 10 10 10 9 9 9 9 8 7 7 7 7 7 6 6 5 5 4 4 4 4 4 4 4 4 4 4 4 4 4 4 4 4 4 4 4 4 5
25 22 20 20 18 17 15 14 13 12 12 12 11 11 10 10 10 10 10 9 9 8 8 8 8 7 7 6 5 5 5 5 5 5 5 5 5 4 5 4 4 4 4 4 4 4 4 4 4 4 3 3
21 20 20 19 18 17 15 14 13 12 12 12 12 11 11 11 10 11 10 10 9 9 9 8 9 8 7 6 6 6 6 6 6 6 5 6 6 5 5 5 5 5 5 5 5 5 4 4 4 4 4 4
20 19 19 20 19 16 15 14 13 12 13 12 12 12 11 11 11 11 11 10 10 10 10 9 9 8 7 7 7 7 7 7 7 7 6 7 6 6 6 6 6 6 6 6 6 5 5 5 5 5 5 4
20 19 19 19 18 16 15 14 13 13 14 13 13 12 12 12 13 12 12 11 11 11 11 10 9 8 8 8 8 8 8 8 8 8 8 8 8 8 8 7 7 7 7 7 6 6 6 6 6 6 6 5
19 18 18 18 17 16 16 14 14 14 14 14 14 13 13 13 13 13 12 12 12 12 12 11 9 9 9 9 9 9 9 9 9 9 9 9 9 9 9 9 9 9 8 8 8 8 8 8 7 7 7 6
19 18 17 17 16 16 16 14 14 15 15 15 14 14 14 14 14 13 13 13 13 13 12 11 10 10 10 10 10 10 10 10 10 10 10 10 10 10 10 10 10 10 10 10 10 10 9 9 9 9 8 8
19 18 17 17 16 16 15 15 15 15 16 15 15 14 14 14 14 14 13 13 14 13 12 11 11 11 11 11 11 11 12 11 11 12 11 12 12 12 12 12 11 11 11 11 11 11 11 10 10 10 10 9
19 19 17 17 17 16 15 15 16 16 16 16 15 15 15 15 15 15 14 14 14 13 12 12 12 12 12 13 13 13 13 13 13 13 13 13 13 13 13 13 13 13 13 13 12 12 12 12 11 11 11 11
19 19 18 17 18 17 16 17 17 17 17 17 16 16 16 16 16 16 15 15 15 13 13 13 13 13 14 14 14 15 14 14 15 15 15 15 15 15 15 15 15 14 14 14 14 14 13 13 12 12 12 12
19 19 18 18 18 17 17 17 18 18 19 18 17 16 16 17 17 17 16 16 15 14 13 13 14 14 15 15 15 15 16 15 16 16 16 16 16 16 16 16 16 16 16 16 16 15 15 15 14 14 13 13
20 19 19 19 19 18 18 18 19 19 19 19 18 16 16 17 17 17 17 16 15 14 13 14 14 15 15 15 16 16 16 16 16 16 17 16 17 17 17 17 18 18 18 18 18 17 17 16 16 15 15 15
20 20 20 19 19 19 19 19 20 20 19 19 18 17 16 17 17 17 17 17 15 14 14 14 14 15 16 16 17 17 17 18 18 18 18 18 18 18 18 18 18 19 19 19 19 19 19 18 18 17 16 16
21 21 21 20 20 20 19 19 19 19 19 18 17 17 17 17 18 17 17 17 15 14 14 14 15 16 16 17 18 18 18 19 19 20 20 20 20 20 20 20 20 20 20 21 20 20 20 20 19 19 19 18
20 21 21 20 20 19 19 19 19 19 19 18 18 18 17 17 18 17 17 17 15 14 14 15 16 17 17 18 18 19 19 20 21 21 22 23 23 23 23 22 22 22 22 22 22 22 21 21 21 21 20 20
19 19 19 19 19 18 18 19 19 20 20 19 19 19 18 18 18 18 18 18 17 16 16 17 17 18 19 20 20 21 22 22 23 23 24 25 26 26 26 26 25 25 25 24 24 24 24 23 23 23 22 22
17 17 18 18 19 19 20 20 21 21 21 21 21 21 21 20 20 20 20 21 20 19 18 18 19 20 21 22 22 23 23 24 25 26 27 28 29 29 29 29 28 28 27 27 26 25 25 25 25 25 24 23
18 19 20 20 21 22 23 23 24 24 24 25 25 25 24 23 23 23 22 23 23 22 20 20 21 22 22 23 24 24 25 26 27 28 29 30 32 32 32 32 31 31 30 30 29 28 27 27 27 27 27 27
21 22 23 23 24 25 25 26 27 27 28 28 27 26 25 25 25 25 25 25 26 25 23 22 23 24 24 24 25 25 26 28 29 30 32 33 34 35 36 35 34 33 33 33 32 31 30 29 29 29 29 29
23 24 25 25 26 27 28 28 28 29 28 28 27 26 25 25 25 26 27 28 28 28 26 25 24 25 26 26 26 27 27 28 30 31 33 35 36 37 38 38 38 37 36 35 35 35 34 33 33 32 31 30
23 24 25 25 26 26 27 27 27 27 26 26 25 25 25 25 26 27 28 30 30 30 30 28 27 27 28 28 28 28 29 30 31 32 35 37 38 39 40 41 42 41 39 37 37 37 37 37 36 34 33 32
22 23 23 24 24 24 25 25 25 25 25 25 25 25 26 27 27 28 30 31 32 33 33 32 31 30 30 30 30 31 31 32 33 35 37 39 41 42 43 44 45 45 44 41 40 38 38 40 39 38 36 34

ECMWFFLT2_prec_cthk_114.txt.gz
RH
48 47 47 47 47 46 46 45 42 38 36 36 36 35 35 35 35 34 33 33 34 34 34 32 31 30 28 28 27 26 25 24 24 23 23 22 22 22 21 21 21 21 21 21 20 20 20 20 20 20 20 19
53 52 52 52 51 51 50 47 43 38 36 35 35 35 34 34 33 33 32 31 31 31 30 28 27 26 25 24 23 22 22 21 20 19 19 18 18 18 18 18 17 17 17 17 17 17 17 17 18 18 18 18
55 54 53 52 52 50 48 45 42 38 36 36 36 35 35 34 34 32 31 30 29 27 26 24 23 22 21 20 19 18 17 17 16 15 15 15 15 15 15 15 14 14 14 14 14 13 13 13 13 13 14 14
52 51 49 49 48 47 45 43 41 38 37 36 36 35 34 33 31 29 27 25 23 22 21 19 18 18 17 16 16 15 15 15 14 14 14 14 14 14 13 13 13 13 12 12 12 12 12 12 12 11 11 12
50 48 47 47 46 45 44 43 41 38 35 34 33 31 29 27 25 23 22 20 20 19 18 17 17 16 16 15 15 15 15 15 15 15 14 14 13 13 12 12 11 11 11 11 10 10 10 10 10 10 10 10
49 49 48 48 47 46 45 43 40 36 33 31 29 26 24 22 21 20 19 19 18 18 17 17 16 16 16 16 16 16 15 15 14 13 12 12 11 11 11 10 10 10 10 9 9 9 9 9 9 9 9 9
50 50 50 50 49 47 46 43 40 34 31 29 26 23 21 20 19 19 19 18 18 17 17 16 16 16 16 15 15 14 14 13 12 11 11 10 10 10 9 9 9 9 9 9 8 8 8 8 8 8 8 8
53 53 53 52 50 48 46 42 38 33 29 26 24 21 20 19 19 18 18 17 17 16 16 16 15 15 15 14 13 12 11 10 10 9 9 8 8 8 7 7 7 7 7 6 6 6 6 6 6 6 5 5
54 53 51 49 46 44 42 39 35 30 26 24 22 21 20 19 18 17 17 16 16 15 15 14 13 12 12 11 9 9 8 8 7 6 6 5 5 5 5 5 5 5 4 4 4 4 4 4 4 4 4 4
51 49 47 45 42 40 38 36 34 29 26 24 22 20 19 18 16 15 14 13 13 11 11 10 9 8 7 7 6 6 6 5 5 5 4 4 4 4 4 4 4 4 4 4 4 4 4 4 4 4 4 3
48 47 46 44 41 39 38 36 34 29 25 23 20 18 16 15 13 11 10 9 9 8 7 6 6 5 5 5 4 5 4 4 4 4 4 4 5 5 5 5 5 5 5 5 4 5 4 4 4 4 4 4
48 48 47 45 42 39 37 34 30 25 22 20 17 14 12 11 10 8 7 7 6 6 5 5 5 4 4 5 5 5 5 5 4 5 5 5 5 5 6 6 6 6 6 6 6 5 5 5 5 5 5 5
46 45 43 41 38 35 31 28 24 20 18 16 14 12 10 9 8 8 7 6 6 6 5 5 5 5 5 5 5 5 5 6 6 6 6 6 6 6 7 7 6 7 6 7 7 6 6 6 6 6 6 6
39 37 34 33 31 28 25 23 20 17 16 15 13 12 10 9 9 8 7 7 6 6 6 5 6 6 6 6 6 6 6 6 7 7 7 7 7 7 7 7 7 7 7 7 7 7 7 7 7 7 7 7
32 30 28 27 25 23 22 21 19 16 16 15 13 12 11 10 9 9 8 7 7 7 7 7 7 7 7 7 7 7 7 7 7 7 7 7 7 8 8 8 8 8 8 8 8 8 8 8 8 8 8 8
27 26 24 23 22 20 20 19 18 16 16 15 13 12 11 10 10 9 9 8 8 8 8 8 8 8 8 8 7 7 7 7 7 7 7 7 8 8 8 8 8 8 9 9 9 9 9 9 9 10 9 9
24 23 22 20 19 18 18 18 18 17 16 15 14 13 12 12 11 11 10 10 9 9 9 8 8 8 8 8 8 7 7 7 7 8 8 8 8 8 8 9 9 9 9 10 10 10 10 11 11 11 11 11
22 22 20 19 19 18 18 18 18 17 17 16 15 14 13 13 12 12 12 11 11 10 9 9 9 9 8 8 8 7 8 8 8 8 8 9 9 9 9 9 10 10 10 10 10 11 11 11 11 11 12 12
22 21 20 20 19 19 19 19 19 19 18 18 16 16 15 14 14 13 13 12 12 11 10 10 9 9 9 9 9 9 9 9 10 10 10 10 11 11 11 11 10 10 11 11 11 11 11 11 11 11 11 12
23 22 21 20 20 21 21 20 20 20 19 18 18 17 16 16 15 14 14 14 13 12 12 11 11 11 11 11 11 11 11 11 12 12 12 12 12 12 12 12 12 12 12 12 12 12 12 11 11 11 12 12
24 23 22 22 22 22 22 22 21 20 20 19 19 18 18 17 16 16 15 15 15 14 13 13 13 13 13 13 13 13 13 13 13 13 13 13 13 13 13 13 13 13 13 13 13 13 13 13 13 13 13 13
25 25 24 24 23 23 23 23 22 22 21 20 20 19 19 18 17 17 17 17 17 16 15 15 15 15 15 15 15 14 14 14 14 15 15 15 15 15 15 15 15 15 15 15 15 15 15 15 15 15 15 15
27 26 26 26 25 25 25 25 24 24 22 21 20 20 19 19 18 18 19 19 19 18 17 17 16 17 17 17 17 16 16 16 16 16 17 16 17 17 17 17 17 17 17 17 17 17 17 17 17 17 17 17
28 28 28 27 27 26 25 25 25 24 23 22 21 20 20 21 22 22 22 21 21 20 20 19 19 18 18 18 18 18 17 17 17 18 18 18 18 18 18 18 18 19 19 19 19 19 19 19 19 19 19 19
27 27 26 27 26 24 23 24 25 25 24 23 22 22 24 24 25 24 23 22 22 22 21 21 20 20 20 19 19 19 18 17 18 18 19 19 19 19 19 20 20 20 21 21 21 21 21 21 21 21 21 21
27 26 25 25 23 22 22 23 23 23 23 23 23 24 25 25 25 24 23 22 22 22 22 21 21 20 19 19 19 19 18 18 18 18 19 19 19 20 20 21 21 21 21 22 22 23 23 23 23 23 23 23
29 27 26 25 25 25 25 25 25 25 25 26 26 26 26 26 24 23 23 22 23 23 22 22 21 20 20 19 19 19 19 18 18 18 19 19 19 20 20 21 21 21 21 22 23 24 24 24 24 24 24 24
30 29 29 28 29 30 30 30 29 29 30 30 30 28 27 25 24 24 23 23 24 24 23 22 21 21 20 20 21 21 21 20 19 19 19 20 20 21 21 22 22 22 22 22 23 24 24 24 24 24 24 24
32 32 31 31 32 33 34 34 34 33 32 31 30 28 25 24 24 25 26 26 26 25 25 24 23 23 23 23 23 23 23 23 22 22 22 22 22 23 23 23 23 24 24 24 24 25 26 26 26 26 25 25
31 31 30 31 32 33 33 32 32 29 27 26 26 24 23 24 26 26 27 27 27 27 27 26 26 26 25 26 26 26 26 26 26 25 25 25 25 25 26 26 26 26 26 27 27 27 28 28 29 29 29 29
29 30 30 30 30 30 30 29 27 25 24 24 24 24 25 26 26 26 27 27 27 28 28 28 28 28 28 28 28 29 29 28 29 29 29 29 28 29 29 29 29 29 30 30 30 30 31 32 32 33 33 33

ECMWFFLT2_prec_cthk_117.txt.gz
RH
62 59 57 55 52 50 48 47 47 45 42 38 37 37 39 40 40 37 38 42 43 40 38 38 36 35 34 33 30 28 28 27 27 27 26 26 26 26 25 25 24 24 24 24 24 23 23 23 23 22 22 22
59 56 54 51 48 46 45 44 44 42 40 37 34 34 35 36 36 35 35 36 36 35 34 34 33 32 31 31 29 28 28 28 27 27 26 26 25 25 24 24 23 23 23 22 22 22 22 22 21 21 21 21
56 53 51 50 48 47 47 46 45 44 42 39 36 36 36 36 35 35 34 34 34 33 33 33 33 32 30 30 29 28 27 26 25 25 24 23 22 22 21 21 20 20 19 19 18 18 18 18 17 17 17 17
57 55 53 53 52 51 51 50 50 49 47 44 40 38 37 36 35 35 35 35 34 33 33 32 31 30 28 27 26 24 23 22 21 20 20 19 19 18 17 16 15 15 14 14 13 13 13 13 13 12 13 12
58 57 56 55 53 52 52 52 52 51 49 46 41 38 37 36 36 36 35 34 33 31 29 28 26 24 23 22 21 20 19 18 18 17 17 16 15 13 13 12 11 11 11 10 10 10 10 10 10 10 10 10
57 56 55 53 52 51 50 50 51 50 49 47 43 39 38 36 35 33 31 29 27 25 24 23 21 20 19 19 19 18 18 17 16 15 14 13 12 11 11 10 10 10 10 10 10 9 9 9 9 9 9 9
56 55 53 52 52 51 51 50 51 51 50 49 44 39 37 34 32 29 27 25 23 22 22 21 20 20 19 19 18 17 16 15 14 12 11 11 11 10 10 10 10 10 10 10 10 9 9 9 9 9 9 9
56 54 53 53 52 52 52 52 52 51 51 49 43 38 34 31 29 26 24 23 23 22 22 21 20 19 18 18 17 16 14 13 12 11 11 11 10 10 10 10 10 10 10 9 9 9 8 8 8 8 8 7
56 55 53 53 53 53 54 54 54 52 51 48 42 36 32 29 27 25 23 23 22 21 21 20 19 18 17 16 15 14 13 12 11 11 11 10 10 10 9 9 9 8 8 8 7 7 6 6 6 6 5 5
55 55 55 56 56 57 56 56 55 53 50 45 39 33 30 26 24 23 22 21 20 19 19 18 17 16 15 14 13 12 12 11 10 10 9 9 8 8 8 7 7 6 6 6 5 5 5 5 5 5 5 4
58 58 59 60 60 59 57 55 53 50 45 40 35 31 28 26 24 22 21 20 18 18 17 16 16 15 14 12 11 10 9 9 8 8 7 7 6 6 6 6 5 5 5 5 5 5 5 5 5 5 5 5
62 62 62 61 60 58 55 53 49 45 41 38 34 31 29 27 25 22 20 19 17 16 15 14 13 11 10 9 8 8 7 6 6 6 6 5 6 5 5 5 5 5 5 5 5 5 5 5 5 5 5 5
61 59 58 56 55 54 53 51 48 44 41 38 34 31 28 26 23 20 17 15 13 11 10 9 8 8 7 6 6 6 6 6 6 5 6 5 5 6 6 6 6 6 5 6 6 6 6 6 6 6 6 6
54 53 51 50 50 51 50 49 46 42 39 35 31 27 24 22 18 15 13 11 9 8 7 7 6 6 5 5 5 6 6 6 6 6 6 6 6 6 6 6 6 6 6 6 6 6 6 7 7 7 7 7
51 50 50 49 48 47 45 43 40 36 32 28 25 22 19 17 14 12 11 9 9 7 7 6 6 6 6 6 6 6 6 6 6 6 6 6 6 6 6 6 6 6 6 7 7 7 7 7 7 7 8 8
50 49 47 44 42 39 38 36 33 29 26 24 21 18 16 15 13 12 11 10 9 8 7 6 6 6 6 7 7 7 7 7 6 6 6 6 7 7 7 7 7 7 7 7 7 8 8 8 8 8 8 8
43 41 39 36 34 32 31 30 27 25 23 21 20 18 16 15 14 13 12 11 10 9 9 8 8 8 8 7 7 7 7 7 7 7 7 7 7 7 7 7 8 8 8 8 9 9 9 9 9 8 9 9
35 34 33 31 29 28 27 25 24 23 22 21 20 18 17 16 15 14 13 12 11 11 10 10 9 9 8 8 8 8 7 7 7 7 7 7 8 8 8 9 9 10 10 10 10 9 10 9 9 9 9 9
33 33 32 30 28 27 25 23 22 22 22 21 20 19 18 17 17 16 15 14 13 12 12 11 10 10 9 9 9 8 8 8 8 8 9 9 10 10 10 11 10 11 11 11 11 10 11 11 10 11 11 10
33 32 32 29 27 26 23 22 22 22 22 21 21 20 19 18 18 17 16 15 14 14 13 12 12 11 11 10 10 10 9 9 10 10 11 11 11 11 11 12 12 12 12 12 12 12 12 12 12 12 12 12
33 33 32 29 27 26 24 22 21 22 22 22 21 21 20 19 19 19 18 17 17 16 15 14 14 13 13 12 12 12 12 12 12 12 12 12 12 13 13 13 13 13 13 13 13 13 13 13 13 13 13 13
33 33 31 28 27 27 25 23 22 22 23 23 22 22 22 22 22 21 21 20 19 18 17 17 16 16 15 15 15 14 14 14 13 13 13 13 14 14 14 14 15 15 15 14 14 14 14 14 14 14 14 13
32 31 28 26 26 27 26 25 25 24 24 24 24 24 24 24 24 23 23 23 22 20 19 18 17 17 17 17 17 16 16 16 15 15 15 15 15 16 16 16 16 16 16 16 16 15 15 15 15 15 15 15
29 28 26 25 26 26 27 26 26 26 25 25 25 25 25 25 25 25 25 24 24 22 21 20 20 19 20 20 20 19 18 18 17 16 16 16 17 17 17 17 17 17 17 17 17 17 17 18 17 17 17 17
26 26 25 25 25 25 26 27 27 27 27 26 25 25 26 26 26 27 27 26 26 25 24 24 23 23 22 22 22 21 20 19 19 18 17 17 17 17 17 17 17 18 19 19 19 19 20 20 20 20 19 19
25 25 24 24 24 24 25 26 27 27 26 26 25 26 27 27 28 29 29 28 28 27 27 26 26 25 24 24 24 23 22 21 20 19 18 17 17 17 18 18 18 19 19 19 20 20 21 21 21 21 21 20
26 25 25 25 26 26 27 28 29 29 29 29 29 30 30 31 30 30 29 29 29 29 29 29 28 27 26 26 25 24 24 22 21 20 19 18 18 19 19 19 20 20 21 21 21 22 22 22 23 22 22 21
28 27 27 28 29 29 30 31 32 33 33 33 33 33 33 32 31 30 30 29 30 31 31 31 30 29 29 28 27 27 26 25 24 22 21 21 21 21 22 22 22 22 23 23 24 24 25 25 25 24 24 24
30 30 30 30 31 32 32 34 35 35 35 35 34 34 32 31 31 31 31 31 32 32 32 32 32 31 30 30 29 28 28 27 26 25 25 25 24 23 24 24 25 25 25 26 26 26 27 27 27 27 26 27
32 32 31 32 32 32 33 34 35 35 35 34 32 31 29 30 31 31 31 31 31 31 32 32 32 32 31 31 31 30 30 30 29 29 28 28 27 26 26 26 27 27 28 28 29 29 29 29 29 29 29 29
33 33 33 33 33 33 34 35 36 35 34 33 32 31 30 31 31 30 31 31 31 32 32 33 33 33 33 33 33 33 33 33 32 32 32 31 31 31 30 29 29 30 31 31 31 32 32 32 33 32 32 32

ECMWFFLT2_prec_cthk_120.txt.gz
RH
75 73 70 64 56 49 48 49 50 51 51 51 50 48 46 46 45 44 44 46 47 45 44 42 39 37 35 33 30 30 30 29 28 28 27 26 25 25 25 25 25 26 26 26 26 26 26 26 25 25 25 25
70 68 62 57 52 49 49 49 51 52 52 51 50 47 43 41 40 39 39 40 38 37 36 35 35 33 33 32 30 29 28 28 28 27 27 26 26 26 26 26 27 27 27 27 27 27 27 26 26 25 25 25
68 65 59 56 56 54 53 52 54 55 54 52 49 46 41 38 36 35 35 35 35 34 33 33 32 32 33 33 31 29 28 28 28 28 28 28 28 27 28 28 27 27 26 26 25 25 24 23 22 21 21 20
66 64 59 57 57 56 55 55 56 57 56 54 51 47 42 38 35 35 34 35 35 34 34 34 33 33 32 34 33 30 29 30 30 30 30 29 28 27 26 25 24 23 21 20 19 18 17 16 15 15 14 14
66 63 59 57 57 55 55 55 55 54 54 53 51 48 44 39 37 37 36 36 36 36 35 35 34 33 33 34 33 30 30 30 29 28 27 25 23 21 20 18 17 16 15 15 14 13 13 12 11 11 11 10
70 68 65 63 62 59 57 55 54 52 52 52 51 49 46 42 38 37 37 37 37 37 37 35 35 33 32 31 29 28 27 26 24 22 20 18 16 15 15 14 13 13 13 12 12 12 11 11 11 10 10 10
69 68 66 65 63 61 59 57 55 53 53 52 51 50 48 44 40 39 39 39 38 37 36 34 32 30 28 26 24 23 22 20 19 17 16 14 14 13 13 13 12 12 12 11 11 11 11 11 10 10 10 10
63 63 62 60 59 59 58 57 56 55 54 53 52 51 51 47 42 41 40 39 37 35 33 31 29 27 25 23 22 21 20 19 17 16 15 14 14 13 12 12 12 12 11 11 11 11 11 11 10 10 10 10
62 61 60 59 58 57 57 56 56 55 54 53 53 52 53 49 44 42 40 37 33 30 28 27 26 25 24 23 22 21 20 18 17 16 15 14 13 13 12 12 12 11 12 11 11 11 11 11 11 11 11 10
62 61 60 59 58 58 57 56 56 56 56 55 54 54 54 50 44 41 38 34 30 27 26 25 25 24 24 23 22 20 18 17 16 15 14 13 13 13 12 12 12 12 12 12 11 11 11 11 10 10 10 9
62 61 60 59 58 58 57 57 58 58 58 57 57 57 56 50 45 41 37 33 29 27 26 24 24 23 22 21 20 18 16 15 15 14 13 13 13 13 12 12 12 11 11 11 10 10 9 9 8 8 8 7
62 61 61 60 60 60 61 62 62 62 61 60 60 58 55 49 44 40 35 31 29 26 25 23 22 21 20 19 18 16 16 15 14 14 13 12 12 12 11 10 10 9 9 8 8 7 7 7 6 6 6 6
64 64 64 64 64 65 66 66 65 64 63 61 59 56 51 47 42 37 33 31 29 26 24 22 21 20 20 18 17 16 15 14 13 12 12 11 10 10 9 8 8 7 7 6 6 6 6 6 6 6 6 6
69 69 69 69 68 68 67 65 64 63 60 58 56 53 49 46 41 37 34 32 29 26 24 22 21 20 19 18 16 14 13 12 11 10 9 9 8 8 7 7 6 6 6 6 6 6 6 6 6 6 6 6
72 71 71 70 69 67 64 62 59 58 57 56 54 51 49 46 41 37 33 31 29 26 23 21 19 17 16 14 12 11 9 8 8 7 7 7 7 7 6 6 6 6 6 6 6 6 6 6 6 6 6 6
69 68 67 66 64 62 60 58 56 55 55 54 53 50 47 43 39 34 31 28 25 22 19 17 15 12 11 10 9 7 7 6 6 6 6 6 6 6 6 6 6 6 6 6 6 6 6 7 7 7 7 7
66 65 64 63 61 60 57 55 54 54 53 51 49 46 43 39 34 30 26 23 20 18 16 13 11 10 8 7 7 7 6 6 6 7 6 6 6 6 6 6 6 6 6 7 7 7 7 8 8 8 8 8
58 58 58 58 58 57 54 52 51 49 47 46 43 40 37 32 29 25 22 20 18 15 13 12 11 9 9 8 7 7 7 7 7 7 7 6 6 6 7 7 7 7 7 8 8 8 9 9 9 9 9 9
46 46 47 47 47 47 45 44 42 41 40 38 36 33 30 26 23 22 20 18 17 16 14 13 11 10 10 9 9 9 8 8 8 7 7 7 7 7 7 7 8 8 8 9 9 9 9 10 10 10 10 10
39 39 39 39 38 37 37 36 35 35 34 32 31 29 26 23 22 20 19 19 18 17 16 15 13 12 12 11 11 10 10 9 9 8 7 7 7 7 8 9 9 10 10 10 10 11 11 11 11 11 11 11
37 37 36 36 36 35 35 34 34 33 32 31 29 27 24 22 21 21 21 20 19 18 18 17 16 15 14 13 13 12 11 11 10 9 8 8 8 9 10 10 11 11 11 12 12 12 12 12 13 13 13 13
36 36 36 36 35 35 35 35 35 35 33 31 29 26 23 22 22 22 22 21 21 21 20 20 20 18 17 16 15 14 13 12 12 11 10 10 10 11 12 12 12 12 13 13 13 13 13 14 14 14 14 14
33 34 34 33 34 34 35 35 35 34 33 31 29 26 23 23 23 23 23 23 23 23 23 23 22 21 20 18 17 16 16 15 13 13 12 12 12 12 13 13 13 14 14 14 14 15 15 15 15 15 15 16
31 31 31 31 32 32 32 34 34 34 33 31 29 26 25 24 25 24 25 25 26 26 26 25 25 24 23 22 21 19 18 17 16 15 15 15 15 15 15 15 15 16 16 16 16 17 17 17 17 17 17 18
29 30 30 30 31 31 32 34 35 34 33 30 29 28 26 26 26 26 27 27 28 28 28 27 27 26 26 25 23 21 20 19 19 20 20 20 19 18 17 17 17 18 17 18 18 18 18 18 18 19 19 19
29 29 29 29 30 31 33 35 35 34 32 30 29 29 28 28 28 28 29 29 29 29 29 29 28 28 27 26 25 24 24 24 24 25 24 23 22 20 19 18 18 19 19 18 18 18 18 19 19 20 20 20
28 28 29 29 30 32 34 35 34 33 32 30 29 29 29 28 29 30 30 31 30 30 30 30 30 30 30 30 29 29 29 29 28 27 26 25 23 22 20 20 19 19 20 19 20 20 20 21 21 21 21 22
27 29 30 30 31 32 33 33 33 32 31 30 29 29 29 30 31 31 32 32 32 31 31 31 32 32 32 32 33 33 32 32 31 29 28 27 26 25 24 22 21 20 21 21 21 22 22 23 24 24 24 24
29 31 33 32 32 32 33 33 32 31 30 30 30 30 31 32 32 33 33 33 33 33 33 33 33 33 34 34 35 35 35 34 33 32 31 30 29 28 27 25 24 22 22 22 23 23 23 24 25 25 25 25
30 33 34 34 34 33 33 32 32 32 32 32 32 32 33 34 35 34 34 35 35 34 35 35 35 35 35 36 36 36 36 36 35 34 33 32 31 30 30 29 28 26 25 25 25 25 26 26 26 27 27 27
29 32 34 35 35 34 34 34 34 34 34 34 34 34 35 36 36 36 36 36 36 36 36 37 37 37 37 37 37 37 37 37 36 36 35 34 34 33 33 33 32 31 29 28 27 27 28 28 28 28 28 29